ASTRA 2F

Last updated on Sat Apr 13 2024 01:02:38 GMT+0100 (British Summer Time)

1 38778U 12051A 24103.31716164 .00000141 00000+0 00000+0 0 9995 2 38778 0.0493 244.3548 0001513 35.2240 63.7811 1.00271049 33148
UTC large
Height (km)
Speed (km/s)
/
Latitude / Longitude
Inclination (degrees)
Orbital Period (minutes)
Azimuth
Elevation
Range (km)
Doppler Factor

Next 0 passes for location: London (51.5072 / 0.1276)

Sorry there are no passes over London.